Location: Marcé
(47.5801°N, 0.3280°W)
Time: 18:17:47
(UTC+01:00)

Tiros 1 despin weight - Pass Details

Date: 03 December 2021
Orbit: 592 x 641 km, 48.2° (Epoch: 21 January)

Event Time Altitude Azimuth Distance (km) Brightness Sun altitude
Rises 17:46:27 0° 278° (W) 2,826 ? -6.0°
Reaches altitude 10° 17:48:44 10° 278° (W) 1,923 ? -6.3°
Maximum altitude 17:53:09 87° 7° (N) 598 ? -7.0°
Drops below altitude 10° 17:57:35 10° 99° (E) 1,928 ? -7.7°
Enters shadow 17:58:36 - 99° (E) 2,328 ? -7.8°
